| time (UTC) | temp F | wind direction | speed knots | gust knots | rain 1hr in | rain 24hr in | rain mn in | humidity % | barometer mb |
| 20260504185209 | 62 | 278 | 0.9 | 0.0 | 0.00 | 0.00 | 0.00 | 86 | 1008.6 |
| 20260504184208 | 62 | 308 | 0.9 | 0.0 | 0.00 | 0.00 | 0.00 | 86 | 1008.4 |
| 20260504183208 | 62 | 300 | 0.0 | 0.0 | 0.00 | 0.00 | 0.00 | 86 | 1008.4 |
| 20260504182217 | 62 | 322 | 0.0 | 0.0 | 0.00 | 0.00 | 0.00 | 86 | 1008.2 |
| 20260504181208 | 62 | 320 | 0.0 | 0.0 | 0.00 | 0.00 | 0.00 | 86 | 1008.0 |
| 20260504180208 | 62 | 322 | 0.0 | 0.0 | 0.00 | 0.00 | 0.00 | 84 | 1008.0 |
| 20260504175209 | 62 | 324 | 0.0 | 0.0 | 0.00 | 0.00 | 0.00 | 84 | 1007.8 |
| 20260504174208 | 62 | 6 | 0.0 | 0.0 | 0.00 | 0.00 | 0.00 | 84 | 1008.0 |
| 20260504173208 | 62 | 294 | 0.0 | 0.0 | 0.00 | 0.00 | 0.00 | 84 | 1008.0 |
| 20260504172213 | 62 | 176 | 0.0 | 0.0 | 0.00 | 0.00 | 0.00 | 84 | 1008.0 |
| 20260504171208 | 64 | 186 | 0.9 | 0.0 | 0.00 | 0.00 | 0.00 | 84 | 1008.2 |
| 20260504170208 | 64 | 302 | 0.0 | 0.0 | 0.00 | 0.00 | 0.00 | 82 | 1008.2 |
| 20260504160208 | 64 | 278 | 0.9 | 0.0 | 0.00 | 0.00 | 0.00 | 78 | 1008.0 |
| 20260504150208 | 66 | 220 | 0.9 | 0.0 | 0.00 | 0.00 | 0.00 | 76 | 1007.8 |
| 20260504141209 | 68 | 164 | 0.9 | 0.0 | 0.00 | 0.00 | 0.00 | 70 | 1007.6 |
| 20260504140209 | 68 | 194 | 0.9 | 0.0 | 0.00 | 0.00 | 0.00 | 70 | 1007.6 |
| 20260504130208 | 70 | 126 | 0.9 | 0.0 | 0.00 | 0.00 | 0.00 | 66 | 1007.8 |
| 20260504120208 | 68 | 160 | 1.7 | 0.0 | 0.00 | 0.00 | 0.00 | 72 | 1008.2 |
| 20260504110207 | 66 | 178 | 0.9 | 0.0 | 0.00 | 0.00 | 0.00 | 78 | 1009.0 |
| 20260504100207 | 62 | 148 | 0.9 | 0.0 | 0.00 | 0.00 | 0.00 | 88 | 1009.4 |
| 20260504081208 | 58 | 104 | 0.0 | 0.0 | 0.00 | 0.00 | 0.00 | 94 | 1009.4 |
| 20260504080208 | 58 | 104 | 0.9 | 0.0 | 0.00 | 0.00 | 0.00 | 94 | 1009.4 |
| 20260504070208 | 56 | 112 | 0.0 | 0.0 | 0.00 | 0.00 | 0.00 | 94 | 1009.6 |
| 20260504060208 | 56 | 108 | 0.9 | 0.0 | 0.02 | 0.00 | 0.00 | 94 | 1009.2 |
| 20260504050208 | 56 | 136 | 0.0 | 0.0 | 0.04 | 0.00 | 0.00 | 96 | 1009.0 |
| 20260504045208 | 56 | 136 | 0.0 | 0.0 | 0.00 | 0.00 | 0.00 | 96 | 1009.0 |
| 20260504044208 | 56 | 112 | 0.0 | 0.0 | 0.00 | 0.00 | 0.00 | 96 | 1009.0 |
| 20260504043208 | 56 | 132 | 0.0 | 0.0 | 0.00 | 0.00 | 0.00 | 96 | 1009.0 |
| 20260504042213 | 56 | 112 | 0.0 | 0.0 | 0.00 | 0.00 | 0.00 | 96 | 1009.0 |
| 20260504041208 | 56 | 112 | 0.0 | 0.0 | 0.00 | 0.00 | 0.00 | 96 | 1009.2 |
| 20260504040208 | 56 | 112 | 0.0 | 0.0 | 0.00 | 0.00 | 0.00 | 94 | 1009.2 |
| 20260504035208 | 56 | 112 | 0.0 | 0.0 | 0.00 | 0.00 | 0.00 | 94 | 1009.2 |
| 20260504034208 | 56 | 112 | 0.0 | 0.0 | 0.00 | 0.00 | 0.00 | 94 | 1009.2 |
| 20260504033208 | 56 | 112 | 0.0 | 0.0 | 0.00 | 0.00 | 0.00 | 94 | 1009.4 |
| 20260504032213 | 56 | 112 | 0.0 | 0.0 | 0.00 | 0.00 | 0.00 | 94 | 1009.4 |
| 20260504031208 | 56 | 112 | 0.0 | 0.0 | 0.00 | 0.00 | 0.00 | 94 | 1009.4 |
| 20260504030208 | 56 | 112 | 0.0 | 0.0 | 0.02 | 0.00 | 0.00 | 94 | 1009.4 |
| 20260504025208 | 56 | 112 | 0.0 | 0.0 | 0.00 | 0.00 | 0.00 | 94 | 1009.4 |
| 20260504024207 | 56 | 112 | 0.0 | 0.0 | 0.00 | 0.00 | 0.00 | 94 | 1009.4 |
| 20260504023208 | 56 | 112 | 0.0 | 0.0 | 0.00 | 0.00 | 0.00 | 94 | 1009.4 |
| 20260504022218 | 56 | 112 | 0.0 | 0.0 | 0.00 | 0.00 | 0.00 | 94 | 1009.2 |
| 20260504021208 | 56 | 112 | 0.0 | 0.0 | 0.00 | 0.00 | 0.00 | 94 | 1009.2 |
| 20260504020208 | 56 | 112 | 0.0 | 0.0 | 0.04 | 0.00 | 0.00 | 94 | 1009.4 |
| 20260504015207 | 56 | 112 | 0.9 | 0.0 | 0.00 | 0.00 | 0.00 | 94 | 1009.4 |
| 20260504014208 | 56 | 118 | 0.9 | 0.0 | 0.00 | 0.00 | 0.00 | 94 | 1009.4 |
| 20260504013208 | 56 | 104 | 0.9 | 0.0 | 0.00 | 0.00 | 0.00 | 94 | 1009.4 |
| 20260504012217 | 56 | 118 | 0.9 | 0.0 | 0.00 | 0.00 | 0.00 | 94 | 1009.6 |
| 20260504011209 | 56 | 124 | 0.9 | 0.0 | 0.00 | 0.00 | 0.00 | 94 | 1009.6 |
| 20260504010208 | 56 | 96 | 0.9 | 0.0 | 0.02 | 0.00 | 0.00 | 94 | 1009.8 |
| 20260504005208 | 56 | 112 | 0.0 | 0.0 | 0.00 | 0.00 | 0.00 | 94 | 1009.8 |
| 20260504004208 | 56 | 190 | 0.0 | 0.0 | 0.00 | 0.00 | 0.00 | 94 | 1009.8 |
| 20260504003207 | 56 | 190 | 0.0 | 0.0 | 0.00 | 0.00 | 0.00 | 94 | 1009.8 |
| 20260504002218 | 56 | 190 | 0.0 | 0.0 | 0.00 | 0.00 | 0.00 | 94 | 1009.8 |
| 20260504001208 | 58 | 196 | 0.0 | 0.0 | 0.00 | 0.00 | 0.00 | 94 | 1010.0 |
| 20260504000208 | 58 | 196 | 0.0 | 0.0 | 0.04 | 0.00 | 0.00 | 94 | 1010.0 |
| 20260503235208 | 58 | 196 | 0.0 | 0.0 | 0.00 | 0.00 | 0.00 | 94 | 1010.2 |
| 20260503234208 | 58 | 196 | 0.0 | 0.0 | 0.00 | 0.00 | 0.00 | 94 | 1010.2 |
| 20260503233208 | 58 | 198 | 0.0 | 0.0 | 0.00 | 0.00 | 0.00 | 94 | 1010.4 |
| 20260503232218 | 58 | 198 | 0.0 | 0.0 | 0.00 | 0.00 | 0.00 | 94 | 1010.4 |
| 20260503231208 | 58 | 198 | 0.0 | 0.0 | 0.00 | 0.00 | 0.00 | 94 | 1010.6 |
| 20260503230208 | 58 | 198 | 0.0 | 0.0 | 0.01 | 0.00 | 0.00 | 94 | 1010.6 |
| 20260503225208 | 58 | 198 | 0.0 | 0.0 | 0.00 | 0.00 | 0.00 | 94 | 1010.8 |
| 20260503224208 | 58 | 198 | 0.0 | 0.0 | 0.00 | 0.00 | 0.00 | 94 | 1010.8 |
| 20260503223208 | 58 | 198 | 0.0 | 0.0 | 0.00 | 0.00 | 0.00 | 94 | 1011.0 |
| 20260503222219 | 58 | 198 | 0.0 | 0.0 | 0.00 | 0.00 | 0.00 | 94 | 1011.0 |
| 20260503221208 | 58 | 198 | 0.0 | 0.0 | 0.00 | 0.00 | 0.00 | 94 | 1011.0 |
| 20260503220208 | 58 | 198 | 0.0 | 0.0 | 0.15 | 0.00 | 0.00 | 94 | 1011.0 |
| 20260503215208 | 58 | 198 | 0.0 | 0.0 | 0.00 | 0.00 | 0.00 | 94 | 1011.0 |
| 20260503214208 | 58 | 198 | 0.0 | 0.0 | 0.00 | 0.00 | 0.00 | 94 | 1011.2 |
| 20260503213208 | 58 | 198 | 0.0 | 0.0 | 0.00 | 0.00 | 0.00 | 94 | 1011.2 |
| 20260503212217 | 58 | 72 | 0.9 | 0.0 | 0.00 | 0.00 | 0.00 | 92 | 1011.2 |
| 20260503211208 | 58 | 108 | 0.9 | 0.0 | 0.00 | 0.00 | 0.00 | 94 | 1011.2 |
| 20260503210208 | 58 | 130 | 0.0 | 0.0 | 0.15 | 0.00 | 0.00 | 92 | 1011.2 |
| 20260503205208 | 58 | 130 | 0.0 | 0.0 | 0.00 | 0.00 | 0.00 | 94 | 1011.4 |
| 20260503204208 | 58 | 124 | 0.0 | 0.0 | 0.00 | 0.00 | 0.00 | 94 | 1011.2 |
| 20260503203208 | 58 | 124 | 0.0 | 0.0 | 0.00 | 0.00 | 0.00 | 94 | 1011.0 |
| 20260503202213 | 58 | 124 | 0.0 | 0.0 | 0.00 | 0.00 | 0.00 | 92 | 1011.2 |
| 20260503201208 | 58 | 164 | 0.0 | 0.0 | 0.00 | 0.00 | 0.00 | 92 | 1011.0 |
| 20260503200208 | 58 | 164 | 0.0 | 0.0 | 0.15 | 0.00 | 0.00 | 92 | 1011.0 |
| 20260503195208 | 58 | 164 | 0.0 | 0.0 | 0.00 | 0.00 | 0.00 | 92 | 1010.8 |
| 20260503194209 | 58 | 164 | 0.0 | 0.0 | 0.00 | 0.00 | 0.00 | 92 | 1010.8 |
| 20260503193208 | 58 | 164 | 0.9 | 0.0 | 0.00 | 0.00 | 0.00 | 92 | 1010.8 |
| 20260503192208 | 58 | 194 | 1.7 | 0.0 | 0.00 | 0.00 | 0.00 | 90 | 1010.6 |
| 20260503191208 | 58 | 166 | 0.0 | 0.0 | 0.00 | 0.00 | 0.00 | 90 | 1010.4 |
| 20260503190208 | 60 | 46 | 0.0 | 0.0 | 0.09 | 0.00 | 0.00 | 90 | 1010.0 |